Hourly Weather Ludwigsfelde

Today, 20 June, Sunday

Time Temperature Precipitation Wind Pressure Humidity
00:00 +22°C° 0.2 mm 3 mps 754 mmHg 89%
01:00 +23°C° 0 mm 2 mps 754 mmHg 87%
02:00 +23°C° 0.1 mm 2 mps 753 mmHg 86%
03:00 +23°C° 0.1 mm 2 mps 753 mmHg 86%
04:00 +23°C° 0.1 mm 1 mps 753 mmHg 86%
05:00 +24°C° 0 mm 2 mps 753 mmHg 81%
06:00 +26°C° 0 mm 2 mps 752 mmHg 77%
07:00 +27°C° 0 mm 3 mps 752 mmHg 72%
08:00 +29°C° 0 mm 3 mps 752 mmHg 64%
09:00 +32°C° 0 mm 4 mps 752 mmHg 55%
10:00 +33°C° 0 mm 5 mps 752 mmHg 47%
11:00 +34°C° 0 mm 5 mps 752 mmHg 46%
12:00 +34°C° 0 mm 5 mps 752 mmHg 45%
13:00 +34°C° 0 mm 5 mps 752 mmHg 44%
14:00 +34°C° 0 mm 4 mps 752 mmHg 42%
15:00 +34°C° 0 mm 4 mps 752 mmHg 41%
16:00 +34°C° 0 mm 4 mps 752 mmHg 39%
17:00 +33°C° 0 mm 3 mps 752 mmHg 45%
18:00 +30°C° 0 mm 3 mps 752 mmHg 51%
19:00 +29°C° 0 mm 2 mps 752 mmHg 56%
20:00 +28°C° 0 mm 2 mps 752 mmHg 59%
21:00 +26°C° 0 mm 3 mps 751 mmHg 62%
22:00 +25°C° 0 mm 3 mps 751 mmHg 65%
23:00 +24°C° 0 mm 3 mps 751 mmHg 71%

Tomorrow, 21 June, Monday

Time Temperature Precipitation Wind Pressure Humidity
00:00 +22°C° 0 mm 3 mps 751 mmHg 76%
01:00 +21°C° 0 mm 4 mps 751 mmHg 81%
02:00 +21°C° 0.3 mm 3 mps 751 mmHg 85%
03:00 +20°C° 0.3 mm 3 mps 751 mmHg 88%
04:00 +20°C° 0.3 mm 2 mps 750 mmHg 92%
05:00 +20°C° 0 mm 2 mps 750 mmHg 90%
06:00 +21°C° 0 mm 2 mps 750 mmHg 89%
07:00 +22°C° 0 mm 1 mps 750 mmHg 88%
08:00 +24°C° 0.1 mm 2 mps 750 mmHg 82%
09:00 +25°C° 0.1 mm 3 mps 751 mmHg 76%
10:00 +27°C° 0.1 mm 3 mps 751 mmHg 70%
11:00 +28°C° 0 mm 3 mps 751 mmHg 63%
12:00 +29°C° 0 mm 4 mps 751 mmHg 55%
13:00 +30°C° 0 mm 4 mps 751 mmHg 48%
14:00 +29°C° 0 mm 4 mps 751 mmHg 48%
15:00 +29°C° 0 mm 4 mps 751 mmHg 48%
16:00 +29°C° 0 mm 4 mps 751 mmHg 48%
17:00 +28°C° 0 mm 3 mps 751 mmHg 53%
18:00 +27°C° 0 mm 3 mps 752 mmHg 57%
19:00 +26°C° 0 mm 2 mps 752 mmHg 62%
20:00 +25°C° 0 mm 2 mps 752 mmHg 67%
21:00 +23°C° 0 mm 2 mps 752 mmHg 71%
22:00 +21°C° 0 mm 2 mps 753 mmHg 76%
23:00 +21°C° 0 mm 1 mps 753 mmHg 79%

Day after tomorrow, 22 June, Tuesday

Time Temperature Precipitation Wind Pressure Humidity
00:00 +21°C° 0 mm 1 mps 753 mmHg 82%
01:00 +20°C° 0 mm 1 mps 753 mmHg 85%
02:00 +19°C° 0 mm 1 mps 753 mmHg 87%
03:00 +19°C° 0 mm 1 mps 753 mmHg 89%
04:00 +19°C° 0 mm 1 mps 754 mmHg 91%
05:00 +19°C° 0 mm 2 mps 754 mmHg 86%
06:00 +20°C° 0 mm 2 mps 755 mmHg 81%
07:00 +21°C° 0 mm 2 mps 755 mmHg 75%
08:00 +23°C° 0 mm 2 mps 755 mmHg 70%
09:00 +24°C° 0 mm 2 mps 755 mmHg 65%
10:00 +25°C° 0 mm 2 mps 755 mmHg 59%
11:00 +26°C° 0 mm 2 mps 755 mmHg 56%
12:00 +27°C° 0 mm 2 mps 755 mmHg 52%
13:00 +28°C° 0 mm 2 mps 755 mmHg 48%
14:00 +28°C° 0.1 mm 2 mps 755 mmHg 48%
15:00 +28°C° 0.1 mm 2 mps 755 mmHg 49%
16:00 +28°C° 0.1 mm 1 mps 755 mmHg 49%
17:00 +27°C° 0 mm 1 mps 755 mmHg 54%
18:00 +26°C° 0 mm 2 mps 755 mmHg 59%
19:00 +25°C° 0 mm 2 mps 755 mmHg 64%
20:00 +24°C° 0 mm 2 mps 755 mmHg 68%
21:00 +22°C° 0 mm 3 mps 755 mmHg 72%
22:00 +20°C° 0 mm 4 mps 755 mmHg 76%
23:00 +19°C° 0.1 mm 4 mps 755 mmHg 77%

23 June, Wednesday

Time Temperature Precipitation Wind Pressure Humidity
00:00 +17°C° 0.1 mm 5 mps 755 mmHg 78%
01:00 +16°C° 0.1 mm 5 mps 756 mmHg 80%
02:00 +16°C° 1.3 mm 5 mps 756 mmHg 83%
03:00 +15°C° 1.3 mm 4 mps 756 mmHg 86%
04:00 +14°C° 1.3 mm 4 mps 756 mmHg 89%
05:00 +14°C° 6.1 mm 4 mps 756 mmHg 91%
06:00 +13°C° 6.1 mm 5 mps 757 mmHg 94%
07:00 +13°C° 6.1 mm 5 mps 757 mmHg 96%
08:00 +13°C° 0.9 mm 5 mps 758 mmHg 95%
09:00 +13°C° 0.9 mm 4 mps 758 mmHg 94%
10:00 +14°C° 0.9 mm 4 mps 759 mmHg 93%
11:00 +14°C° 0 mm 4 mps 759 mmHg 90%
12:00 +15°C° 0 mm 4 mps 759 mmHg 86%
13:00 +15°C° 0 mm 4 mps 759 mmHg 83%
14:00 +17°C° 0 mm 3 mps 760 mmHg 81%
15:00 +17°C° 0 mm 3 mps 760 mmHg 78%
16:00 +18°C° 0 mm 2 mps 760 mmHg 75%
17:00 +18°C° 0 mm 2 mps 760 mmHg 75%
18:00 +18°C° 0 mm 2 mps 760 mmHg 75%
19:00 +18°C° 0 mm 2 mps 760 mmHg 75%
20:00 +18°C° 0 mm 1 mps 760 mmHg 77%
21:00 +18°C° 0 mm 1 mps 760 mmHg 79%
22:00 +16°C° 0 mm 1 mps 761 mmHg 81%
23:00 +16°C° 0 mm 1 mps 760 mmHg 83%

24 June, Thursday

Time Temperature Precipitation Wind Pressure Humidity
00:00 +15°C° 0 mm 1 mps 760 mmHg 84%
01:00 +15°C° 0 mm 1 mps 760 mmHg 85%
02:00 +15°C° 0 mm 1 mps 760 mmHg 85%
03:00 +15°C° 0 mm 1 mps 760 mmHg 86%
04:00 +15°C° 0 mm 1 mps 760 mmHg 87%
05:00 +15°C° 0 mm 1 mps 760 mmHg 84%
06:00 +16°C° 0 mm 1 mps 760 mmHg 82%
07:00 +16°C° 0 mm 1 mps 760 mmHg 80%
08:00 +16°C° 0.4 mm 1 mps 760 mmHg 80%
09:00 +18°C° 0.4 mm 1 mps 760 mmHg 80%
10:00 +18°C° 0.4 mm 1 mps 760 mmHg 80%
11:00 +18°C° 0.3 mm 1 mps 760 mmHg 84%
12:00 +16°C° 0.3 mm 1 mps 761 mmHg 87%
13:00 +16°C° 0.3 mm 1 mps 761 mmHg 90%
14:00 +16°C° 0.1 mm 1 mps 761 mmHg 91%
15:00 +16°C° 0.1 mm 2 mps 761 mmHg 92%
16:00 +16°C° 0.1 mm 2 mps 761 mmHg 93%
17:00 +16°C° 0.2 mm 1 mps 760 mmHg 94%
18:00 +15°C° 0.2 mm 1 mps 760 mmHg 94%
19:00 +15°C° 0.2 mm 1 mps 760 mmHg 95%
20:00 +15°C° 0 mm 1 mps 760 mmHg 94%
21:00 +15°C° 0 mm 1 mps 760 mmHg 94%
22:00 +15°C° 0 mm 1 mps 760 mmHg 94%
23:00 +15°C° 0 mm 1 mps 760 mmHg 94%

25 June, Friday

Time Temperature Precipitation Wind Pressure Humidity
00:00 +15°C° 0 mm 1 mps 760 mmHg 95%
01:00 +15°C° 0 mm 1 mps 760 mmHg 95%
02:00 +14°C° 0 mm 1 mps 760 mmHg 96%
03:00 +14°C° 0 mm 2 mps 760 mmHg 96%
04:00 +14°C° 0 mm 2 mps 760 mmHg 96%
05:00 +15°C° 0 mm 2 mps 760 mmHg 92%
06:00 +16°C° 0 mm 2 mps 760 mmHg 89%
07:00 +17°C° 0 mm 2 mps 760 mmHg 85%
08:00 +19°C° 0 mm 2 mps 760 mmHg 77%
09:00 +20°C° 0 mm 2 mps 760 mmHg 68%
10:00 +21°C° 0 mm 2 mps 760 mmHg 60%
11:00 +22°C° 0 mm 3 mps 760 mmHg 56%
12:00 +24°C° 0 mm 3 mps 760 mmHg 52%
13:00 +24°C° 0 mm 3 mps 760 mmHg 49%
14:00 +24°C° 0 mm 3 mps 760 mmHg 47%
15:00 +24°C° 0 mm 3 mps 760 mmHg 46%
16:00 +24°C° 0 mm 3 mps 759 mmHg 45%
17:00 +24°C° 0 mm 2 mps 759 mmHg 49%
18:00 +23°C° 0 mm 2 mps 759 mmHg 54%
19:00 +21°C° 0 mm 2 mps 759 mmHg 59%
20:00 +20°C° 0 mm 2 mps 759 mmHg 64%
21:00 +19°C° 0 mm 1 mps 759 mmHg 69%
22:00 +18°C° 0 mm 1 mps 759 mmHg 74%
23:00 +18°C° 0 mm 1 mps 760 mmHg 75%
Show more

We Need Your Consent

Meteoprog and our Service Providers may store and access personal data such as cookies, device identifiers or other similar technologies on your device and process such data to personalise content and ads, as well as provide social media features and to analyse the traffic.

  • Store and/or access information on your device

    Cookies, device identifiers or other information can be stored or accessed on your device for the purposes indicated above.

  • Personalised ads and content, ad and content measurement, audience insights, and products development

    Ads and content can be personalised based on a profile. More data can be added to better personalise ads and content. Ad and content performance can be measured. Insights about the audience who saw the ads and content can be derived. Such data can be used to develop or improve user’s experience, systems and software.

By clicking ‘I Agree’ you will allow the use of indicated cookies, device identifiers, web beacons or other similar technologies. Your settings can be changed in the browser on your device.

For certain purposes, legitimate interests may be relied on, rather than consent. You can read more about this in our Privacy and Cookie Policy.